📊 Raw Sensor Data
Showing records 50476 to 50500 of 85,135 total
| ID | Distance (ft) | Battery V | Battery A | Int Temp (°F) | Int Humid (%) | Ext Temp (°F) | Solar V | RSSI | SNR | Time Stamp |
|---|---|---|---|---|---|---|---|---|---|---|
| 34672 | 15.7 | 4.00 | 6 | 53 | 35 | 57 | 5.10 | -77 | 8 | 03/11/2025 09:30 AM |
| 34671 | 15.6 | 4.00 | 6 | 50 | 35 | 52 | 5.10 | -77 | 8 | 03/11/2025 09:15 AM |
| 34670 | 15.6 | 4.00 | 6 | 48 | 36 | 51 | 5.10 | -77 | 7 | 03/11/2025 09:00 AM |
| 34669 | 15.6 | 4.00 | 5 | 46 | 36 | 48 | 5.10 | -77 | 8 | 03/11/2025 08:45 AM |
| 34668 | 15.5 | 4.01 | 5 | 45 | 36 | 48 | 5.10 | -77 | 8 | 03/11/2025 08:30 AM |
| 34667 | 15.5 | 4.12 | 36 | 43 | 36 | 49 | 4.50 | -76 | 8 | 03/11/2025 08:15 AM |
| 34666 | 15.5 | 4.01 | 0 | 42 | 36 | 46 | 4.50 | -76 | 8 | 03/11/2025 08:00 AM |
| 34665 | 15.4 | 3.99 | 0 | 42 | 37 | 45 | 4.50 | -76 | 9 | 03/11/2025 07:45 AM |
| 34664 | 15.5 | 3.91 | -9 | 40 | 38 | 44 | 4.50 | -76 | 8 | 03/11/2025 07:30 AM |
| 34663 | 15.4 | 3.92 | -5 | 39 | 38 | 41 | 1.80 | -77 | 8 | 03/11/2025 07:15 AM |
| 34662 | 15.5 | 3.92 | -5 | 39 | 38 | 42 | 0.00 | -77 | 8 | 03/11/2025 07:00 AM |
| 34661 | 15.5 | 3.96 | -29 | 39 | 39 | 43 | 0.00 | -76 | 8 | 03/11/2025 06:45 AM |
| 34660 | 15.5 | 3.93 | -5 | 40 | 38 | 39 | 0.00 | -76 | 8 | 03/11/2025 06:30 AM |
| 34659 | 15.5 | 3.93 | -5 | 42 | 38 | 44 | 0.00 | -78 | 8 | 03/11/2025 06:15 AM |
| 34658 | 15.5 | 3.93 | -5 | 43 | 38 | 44 | 0.00 | -77 | 8 | 03/11/2025 06:00 AM |
| 34657 | 15.4 | 3.98 | -5 | 43 | 37 | 46 | 0.00 | -76 | 8 | 03/11/2025 05:45 AM |
| 34656 | 15.5 | 3.98 | -5 | 44 | 37 | 47 | 0.00 | -75 | 8 | 03/11/2025 05:30 AM |
| 34655 | 15.4 | 3.93 | -5 | 44 | 37 | 46 | 0.00 | -76 | 8 | 03/11/2025 05:15 AM |
| 34654 | 15.5 | 3.99 | -10 | 44 | 37 | 47 | 0.00 | -76 | 9 | 03/11/2025 05:00 AM |
| 34653 | 15.4 | 3.99 | -5 | 43 | 37 | 47 | 0.00 | -76 | 8 | 03/11/2025 04:45 AM |
| 34652 | 15.4 | 3.93 | -5 | 41 | 38 | 45 | 0.00 | -76 | 8 | 03/11/2025 04:30 AM |
| 34651 | 15.5 | 3.93 | -5 | 39 | 38 | 41 | 0.00 | -75 | 8 | 03/11/2025 04:00 AM |
| 34650 | 15.4 | 3.93 | -5 | 39 | 39 | 40 | 0.00 | -75 | 8 | 03/11/2025 03:45 AM |
| 34649 | 15.5 | 3.94 | -5 | 40 | 38 | 41 | 0.00 | -76 | 8 | 03/11/2025 03:30 AM |
| 34648 | 15.4 | 3.99 | -5 | 40 | 39 | 42 | 0.00 | -75 | 9 | 03/11/2025 03:15 AM |